South Haven, MI

7:21 PM EST on February 06, 2016 (GMT -0500)
South Haven

Weather History for KLWA - January, 2014

Change the Weather History Date:

Friday, January 31, 2014

  Actual Average (KBIV) Record (KBIV)
Temperature  
Mean Temperature 27 °F 26 °F  
Max Temperature 32 °F 32 °F 56 °F (2012)
Min Temperature 22 °F 20 °F -4 °F (1949)
Degree Days  
Heating Degree Days 38 39  
Month to date heating degree days 1200  
Since 1 July heating degree days 3474  
Cooling Degree Days 0 0  
Month to date cooling degree days 0  
Year to date cooling degree days 0  
Moisture  
Dew Point 20 °F    
Average Humidity 79    
Maximum Humidity 89    
Minimum Humidity 69    
Precipitation  
Precipitation 0.00 in 0.07 in 0.36 in (2002)
Month to date precipitation 2.09  
Year to date precipitation 2.09  
Sea Level Pressure  
Sea Level Pressure 30.05 in    
Wind  
Wind Speed 7 mph (WNW)    
Max Wind Speed 15 mph    
Max Gust Speed 25 mph    
Visibility 10 miles    
Events      
T = Trace of Precipitation, MM = Missing Value Source: NWS Daily Summary

Daily Weather History Graph

Daily Weather History Graph

Search for Another Location

Airport or City:

Trip Planner

Search our weather history database for the weather conditions in past years. The results will help you decide how hot, cold, wet, or windy it might be!

Date:

Astronomy

Jan. 31, 2014 Rise Set
Actual Time 7:59 AM EST 5:57 PM EST
Civil Twilight 7:29 AM EST 6:27 PM EST
Nautical Twilight 6:56 AM EST 7:01 PM EST
Astronomical Twilight 6:23 AM EST 7:34 PM EST
Moon 8:06 AM EST (1/31) 7:24 PM EST (1/31)
Length of Visible Light 10h 58m
Length of Day
9h 58m
New Moon, 1% of the Moon is Illuminated
Jan 31
New Moon
Feb 6
First Quarter
Feb 14
Full
Feb 22
Last Quarter
Mar 1
New

Hourly Weather History & Observations

Time (EST) Temp. Windchill Dew Point Humidity Pressure Visibility Wind Dir Wind Speed Gust Speed Precip Events Conditions
12:15 AM 32.0 °F 22.5 °F 28.4 °F 87% 29.82 in 10.0 mi WSW 12.7 mph 20.7 mph N/A   Overcast
12:35 AM 32.2 °F 21.8 °F 28.4 °F 86% 29.83 in 10.0 mi WSW 15.0 mph 24.2 mph N/A   Overcast
12:55 AM 32.2 °F 23.8 °F 28.6 °F 87% 29.84 in 10.0 mi WSW 10.4 mph 20.7 mph N/A   Overcast
1:15 AM 32.2 °F 22.7 °F 28.8 °F 87% 29.85 in 10.0 mi WSW 12.7 mph 18.4 mph N/A   Overcast
1:35 AM 32.2 °F 23.8 °F 29.3 °F 89% 29.86 in 10.0 mi WSW 10.4 mph 18.4 mph N/A   Overcast
1:55 AM 32.0 °F 25.6 °F 28.9 °F 88% 29.86 in 10.0 mi West 6.9 mph - N/A   Overcast
2:15 AM 32.2 °F 23.8 °F 28.4 °F 86% 29.88 in 10.0 mi West 10.4 mph 17.3 mph N/A   Overcast
2:35 AM 32.0 °F 22.5 °F 27.1 °F 82% 29.89 in 10.0 mi NNW 12.7 mph 25.3 mph N/A   Overcast
2:55 AM 29.8 °F 20.3 °F 25.3 °F 83% 29.91 in 10.0 mi NNW 11.5 mph 21.9 mph N/A   Overcast
3:15 AM 28.9 °F 20.4 °F 24.6 °F 84% 29.92 in 10.0 mi NNW 9.2 mph 19.6 mph N/A   Overcast
3:35 AM 28.0 °F 18.6 °F 23.7 °F 84% 29.93 in 10.0 mi NW 10.4 mph - N/A   Overcast
3:55 AM 27.3 °F 18.4 °F 22.8 °F 83% 29.94 in 10.0 mi NNW 9.2 mph 19.6 mph N/A   Overcast
4:15 AM 26.6 °F 15.7 °F 22.1 °F 83% 29.94 in 10.0 mi NNW 12.7 mph - N/A   Overcast
4:35 AM 26.4 °F 16.0 °F 21.7 °F 82% 29.94 in 10.0 mi NW 11.5 mph 16.1 mph N/A   Overcast
4:55 AM 25.9 °F 18.2 °F 21.2 °F 82% 29.95 in 10.0 mi NW 6.9 mph 17.3 mph N/A   Mostly Cloudy
5:15 AM 25.5 °F 17.8 °F 20.3 °F 81% 29.96 in 10.0 mi NW 6.9 mph - N/A   Mostly Cloudy
5:35 AM 25.3 °F 18.5 °F 19.6 °F 79% 29.97 in 10.0 mi NW 5.8 mph - N/A   Mostly Cloudy
5:55 AM 24.8 °F 15.3 °F 19.0 °F 79% 29.98 in 10.0 mi NNW 9.2 mph - N/A   Scattered Clouds
6:15 AM 24.6 °F 17.7 °F 18.5 °F 78% 29.99 in 10.0 mi NW 5.8 mph - N/A   Scattered Clouds
6:35 AM 24.3 °F 17.3 °F 18.5 °F 79% 30.01 in 10.0 mi NW 5.8 mph - N/A   Mostly Cloudy
6:55 AM 23.9 °F 16.8 °F 18.3 °F 79% 30.01 in 10.0 mi NNW 5.8 mph - N/A   Mostly Cloudy
7:15 AM 23.5 °F 19.1 °F 18.1 °F 80% 30.02 in 10.0 mi NW 3.5 mph - N/A   Mostly Cloudy
7:35 AM 22.8 °F 16.7 °F 17.4 °F 80% 30.03 in 10.0 mi NNW 4.6 mph - N/A   Scattered Clouds
7:55 AM 22.1 °F 15.9 °F 16.7 °F 80% 30.04 in 10.0 mi NW 4.6 mph - N/A   Clear
8:15 AM 22.5 °F 17.8 °F 16.2 °F 77% 30.05 in 10.0 mi NW 3.5 mph - N/A   Clear
8:35 AM 22.5 °F 17.8 °F 16.3 °F 77% 30.06 in 10.0 mi WNW 3.5 mph - N/A   Clear
8:55 AM 22.6 °F - 16.7 °F 78% 30.07 in 10.0 mi Calm Calm - N/A   Clear
9:15 AM 23.2 °F 18.7 °F 16.7 °F 76% 30.08 in 10.0 mi NW 3.5 mph - N/A   Clear
9:35 AM 23.7 °F 19.3 °F 16.5 °F 74% 30.09 in 10.0 mi NW 3.5 mph - N/A   Clear
9:55 AM 23.9 °F 19.5 °F 16.2 °F 72% 30.09 in 10.0 mi NNW 3.5 mph - N/A   Clear
10:15 AM 24.3 °F - 16.3 °F 72% 30.09 in 10.0 mi Calm Calm - N/A   Clear
10:35 AM 24.4 °F 20.1 °F 16.2 °F 71% 30.10 in 10.0 mi North 3.5 mph - N/A   Clear
10:55 AM 24.4 °F 20.1 °F 16.0 °F 70% 30.10 in 10.0 mi NNW 3.5 mph - N/A   Clear
11:15 AM 24.6 °F 20.3 °F 15.8 °F 69% 30.11 in 10.0 mi NW 3.5 mph - N/A   Scattered Clouds
11:35 AM 24.4 °F 18.6 °F 15.8 °F 70% 30.11 in 10.0 mi NNW 4.6 mph - N/A   Clear
11:55 AM 24.6 °F 20.3 °F 15.8 °F 69% 30.11 in 10.0 mi WNW 3.5 mph - N/A   Scattered Clouds
12:15 PM 25.3 °F 19.7 °F 16.3 °F 69% 30.12 in 10.0 mi NW 4.6 mph - N/A   Scattered Clouds
12:35 PM 25.0 °F 19.3 °F 16.5 °F 70% 30.12 in 10.0 mi West 4.6 mph - N/A   Mostly Cloudy
12:55 PM 24.8 °F 17.9 °F 16.3 °F 70% 30.12 in 10.0 mi West 5.8 mph - N/A   Mostly Cloudy
1:15 PM 25.0 °F 19.3 °F 16.7 °F 71% 30.12 in 10.0 mi WSW 4.6 mph - N/A   Mostly Cloudy
1:35 PM 25.2 °F 17.3 °F 17.2 °F 72% 30.12 in 10.0 mi West 6.9 mph - N/A   Mostly Cloudy
1:55 PM 25.0 °F 18.1 °F 17.1 °F 72% 30.12 in 10.0 mi West 5.8 mph - N/A   Scattered Clouds
2:15 PM 25.3 °F 18.5 °F 17.1 °F 71% 30.12 in 10.0 mi West 5.8 mph - N/A   Scattered Clouds
2:35 PM 24.8 °F 17.9 °F 17.4 °F 74% 30.11 in 10.0 mi West 5.8 mph - N/A   Mostly Cloudy
2:55 PM 25.2 °F 18.3 °F 17.6 °F 73% 30.11 in 10.0 mi WNW 5.8 mph - N/A   Mostly Cloudy
3:15 PM 24.8 °F 17.9 °F 18.1 °F 76% 30.11 in 10.0 mi WNW 5.8 mph - N/A   Scattered Clouds
3:35 PM 24.8 °F 16.9 °F 17.6 °F 74% 30.12 in 10.0 mi West 6.9 mph - N/A   Mostly Cloudy
3:55 PM 24.8 °F 19.1 °F 17.6 °F 74% 30.11 in 10.0 mi NW 4.6 mph - N/A   Scattered Clouds
4:15 PM 24.8 °F 20.5 °F 17.8 °F 75% 30.11 in 10.0 mi WNW 3.5 mph - N/A   Scattered Clouds
4:35 PM 24.6 °F - 18.1 °F 76% 30.11 in 10.0 mi Calm Calm - N/A   Mostly Cloudy
4:55 PM 24.4 °F 20.1 °F 18.3 °F 78% 30.11 in 10.0 mi NW 3.5 mph - N/A   Mostly Cloudy
5:15 PM 24.4 °F - 18.5 °F 78% 30.12 in 10.0 mi Calm Calm - N/A   Overcast
5:35 PM 24.3 °F 19.9 °F 18.5 °F 79% 30.12 in 10.0 mi WNW 3.5 mph - N/A   Overcast
5:55 PM 24.3 °F - 18.9 °F 80% 30.12 in 10.0 mi Calm Calm - N/A   Overcast
6:15 PM 24.3 °F - 18.9 °F 80% 30.12 in 10.0 mi Calm Calm - N/A   Overcast
6:35 PM 23.5 °F - 18.9 °F 82% 30.12 in 10.0 mi Calm Calm - N/A   Overcast
6:55 PM 23.4 °F - 18.9 °F 83% 30.11 in 10.0 mi Calm Calm - N/A   Overcast
7:15 PM 23.0 °F - 18.5 °F 83% 30.12 in 10.0 mi Calm Calm - N/A   Overcast
7:35 PM 22.6 °F - 18.5 °F 84% 30.12 in 10.0 mi Calm Calm - N/A   Overcast
7:55 PM 22.8 °F - 18.9 °F 85% 30.11 in 10.0 mi Calm Calm - N/A   Overcast
8:15 PM 22.6 °F - 18.7 °F 85% 30.11 in 10.0 mi Calm Calm - N/A   Overcast
8:35 PM 22.8 °F - 18.9 °F 85% 30.11 in 10.0 mi Calm Calm - N/A   Overcast
8:55 PM 22.8 °F - 18.9 °F 85% 30.11 in 10.0 mi Calm Calm - N/A   Overcast
9:15 PM 22.8 °F - 19.0 °F 85% 30.11 in 10.0 mi Calm Calm - N/A   Overcast
9:35 PM 22.8 °F - 19.0 °F 85% 30.11 in 10.0 mi Calm Calm - N/A   Overcast
9:55 PM 22.8 °F - 19.0 °F 85% 30.11 in 10.0 mi Calm Calm - N/A   Overcast
10:15 PM 22.6 °F - 18.9 °F 85% 30.11 in 10.0 mi Calm Calm - N/A   Overcast
10:35 PM 22.8 °F - 19.0 °F 85% 30.11 in 10.0 mi Calm Calm - N/A   Overcast
10:55 PM 22.8 °F - 19.0 °F 85% 30.11 in 10.0 mi Calm Calm - N/A   Overcast
11:15 PM 22.6 °F - 19.4 °F 87% 30.11 in 5.0 mi Calm Calm - N/A   Overcast
11:35 PM 22.5 °F - 19.4 °F 88% 30.10 in 5.0 mi Calm Calm - N/A   Overcast
11:55 PM 22.5 °F - 19.4 °F 88% 30.10 in 5.0 mi Calm Calm - N/A   Overcast